Location: Unspecified
(0.0000°N, 0.0000°E)
Time: 14:36:06
(UTC+00:00)

STARLINK-4307 - Pass Details

Date: 31 October 2025
Orbit: 548 x 551 km, 97.6° (Epoch: 29 March)

Event Time Altitude Azimuth Distance (km) Brightness Sun altitude
Rises 07:06:05 0° 248° (WSW) 2,716 6.7 20.0°
Reaches altitude 10° 17:26:30 10° 16° (NNE) 1,813 6.0 4.1°
Maximum altitude 17:30:25 75° 101° (E) 570 3.7 3.2°
Drops below altitude 10° 17:34:21 10° 187° (S) 1,821 6.6 2.2°
Sets 17:36:28 0° 188° (S) 2,716 7.5 1.7°
